Time,TemperatureF,DewpointF,PressureIn,WindDirection,WindDirectionDegrees,WindSpeedMPH,WindSpeedGustMPH,Humidity,HourlyPrecipIn,Conditions,Clouds,dailyrainin,SoftwareType,DateUTC
2013-08-02 00:00:00,56.2,51.4,29.95,ESE,113,0.0,0.0,84,0.00,,,0.00,Wunderground v.1.15,2013-08-02 07:00:00,
2013-08-02 00:09:00,55.5,50.7,29.95,ESE,113,0.0,0.0,84,0.00,,,0.00,Wunderground v.1.15,2013-08-02 07:09:00,
2013-08-02 00:15:00,55.1,50.4,29.95,ESE,113,0.0,0.0,84,0.00,,,0.00,Wunderground v.1.15,2013-08-02 07:15:00,
2013-08-02 00:20:00,55.1,51.0,29.95,ESE,113,0.0,0.0,86,0.00,,,0.00,Wunderground v.1.15,2013-08-02 07:20:00,
2013-08-02 00:30:00,55.2,51.4,29.95,ESE,113,0.0,0.0,87,0.00,,,0.00,Wunderground v.1.15,2013-08-02 07:30:00,
2013-08-02 00:40:00,55.4,51.6,29.95,ESE,113,0.0,0.0,87,0.00,,,0.00,Wunderground v.1.15,2013-08-02 07:40:00,
2013-08-02 00:45:00,55.4,51.6,29.95,ESE,113,0.0,0.0,87,0.00,,,0.00,Wunderground v.1.15,2013-08-02 07:45:00,
2013-08-02 00:50:00,54.9,50.5,29.94,ESE,113,0.0,0.0,85,0.00,,,0.00,Wunderground v.1.15,2013-08-02 07:50:00,
2013-08-02 01:00:00,55.0,51.5,29.94,ESE,113,0.0,0.0,88,0.00,,,0.00,Wunderground v.1.15,2013-08-02 08:00:00,
2013-08-02 01:09:00,55.1,51.6,29.94,ESE,113,0.0,0.0,88,0.00,,,0.00,Wunderground v.1.15,2013-08-02 08:09:00,
2013-08-02 01:15:00,55.1,51.6,29.94,ESE,113,0.0,0.0,88,0.00,,,0.00,Wunderground v.1.15,2013-08-02 08:15:00,
2013-08-02 01:25:00,55.3,51.8,29.94,ESE,113,0.0,0.0,88,0.00,,,0.00,Wunderground v.1.15,2013-08-02 08:25:00,
2013-08-02 01:35:00,55.2,51.1,29.93,ESE,113,0.0,0.0,86,0.00,,,0.00,Wunderground v.1.15,2013-08-02 08:35:00,
2013-08-02 01:50:00,55.2,51.4,29.93,ESE,113,0.0,0.0,87,0.00,,,0.00,Wunderground v.1.15,2013-08-02 08:50:00,
2013-08-02 02:00:00,54.5,50.4,29.93,ESE,113,0.0,0.0,86,0.00,,,0.00,Wunderground v.1.15,2013-08-02 09:00:00,
2013-08-02 02:15:00,53.6,49.8,29.92,ESE,113,0.0,0.0,87,0.00,,,0.00,Wunderground v.1.15,2013-08-02 09:15:00,
2013-08-02 02:20:00,53.3,49.5,29.92,ESE,113,0.0,0.0,87,0.00,,,0.00,Wunderground v.1.15,2013-08-02 09:20:00,
2013-08-02 02:35:00,52.6,49.1,29.92,ESE,113,0.0,0.0,88,0.00,,,0.00,Wunderground v.1.15,2013-08-02 09:35:00,
2013-08-02 02:40:00,52.5,49.0,29.92,ESE,113,0.0,0.0,88,0.00,,,0.00,Wunderground v.1.15,2013-08-02 09:40:00,
2013-08-02 02:45:00,52.3,48.9,29.92,ESE,113,0.0,0.0,88,0.00,,,0.00,Wunderground v.1.15,2013-08-02 09:45:00,
2013-08-02 02:55:00,52.3,49.2,29.92,ESE,113,0.0,0.0,89,0.00,,,0.00,Wunderground v.1.15,2013-08-02 09:55:00,
2013-08-02 03:00:00,52.4,49.6,29.92,ESE,113,0.0,0.0,90,0.00,,,0.00,Wunderground v.1.15,2013-08-02 10:00:00,
2013-08-02 03:10:00,52.7,49.8,29.92,ESE,113,0.0,0.0,90,0.00,,,0.00,Wunderground v.1.15,2013-08-02 10:10:00,
2013-08-02 03:20:00,53.0,50.4,29.91,ESE,113,0.0,0.0,91,0.00,,,0.00,Wunderground v.1.15,2013-08-02 10:20:00,
2013-08-02 03:25:00,53.0,50.1,29.91,ESE,113,0.0,0.0,90,0.00,,,0.00,Wunderground v.1.15,2013-08-02 10:25:00,
2013-08-02 03:30:00,52.9,50.0,29.92,ESE,113,0.0,0.0,90,0.00,,,0.00,Wunderground v.1.15,2013-08-02 10:30:00,
2013-08-02 03:40:00,52.7,49.8,29.91,ESE,113,0.0,0.0,90,0.00,,,0.00,Wunderground v.1.15,2013-08-02 10:40:00,
2013-08-02 03:50:00,53.0,50.4,29.91,ESE,113,0.0,0.0,91,0.00,,,0.00,Wunderground v.1.15,2013-08-02 10:50:00,
2013-08-02 03:55:00,52.9,50.3,29.91,ESE,113,0.0,0.0,91,0.00,,,0.00,Wunderground v.1.15,2013-08-02 10:55:00,
2013-08-02 04:05:00,52.9,50.3,29.92,ESE,113,0.0,0.0,91,0.00,,,0.00,Wunderground v.1.15,2013-08-02 11:05:00,
2013-08-02 04:15:00,53.0,50.7,29.92,ESE,113,0.0,0.0,92,0.00,,,0.00,Wunderground v.1.15,2013-08-02 11:15:00,
2013-08-02 04:25:00,54.1,51.5,29.92,SSW,193,1.0,1.0,91,0.00,,,0.00,Wunderground v.1.15,2013-08-02 11:25:00,
2013-08-02 04:35:00,54.8,51.0,29.92,SSW,194,1.0,1.0,87,0.00,,,0.00,Wunderground v.1.15,2013-08-02 11:35:00,
2013-08-02 04:40:00,54.7,50.9,29.92,SSW,194,0.0,0.0,87,0.00,,,0.00,Wunderground v.1.15,2013-08-02 11:40:00,
2013-08-02 04:50:00,54.4,50.9,29.92,SSW,194,0.0,0.0,88,0.00,,,0.00,Wunderground v.1.15,2013-08-02 11:50:00,
2013-08-02 05:00:00,53.8,50.6,29.92,SSW,194,0.0,0.0,89,0.00,,,0.00,Wunderground v.1.15,2013-08-02 12:00:00,
2013-08-02 05:05:00,53.5,50.3,29.92,NW,325,0.0,0.0,89,0.00,,,0.00,Wunderground v.1.15,2013-08-02 12:05:00,
2013-08-02 05:15:00,52.7,49.2,29.92,NW,325,0.0,0.0,88,0.00,,,0.00,Wunderground v.1.15,2013-08-02 12:15:00,
2013-08-02 05:20:00,52.4,49.3,29.92,NW,325,0.0,0.0,89,0.00,,,0.00,Wunderground v.1.15,2013-08-02 12:20:00,
2013-08-02 05:30:00,52.1,49.3,29.93,NW,325,0.0,0.0,90,0.00,,,0.00,Wunderground v.1.15,2013-08-02 12:30:00,
2013-08-02 05:45:00,51.7,49.2,29.93,NW,325,0.0,0.0,91,0.00,,,0.00,Wunderground v.1.15,2013-08-02 12:45:00,
2013-08-02 05:50:00,51.7,49.2,29.93,NW,325,0.0,0.0,91,0.00,,,0.00,Wunderground v.1.15,2013-08-02 12:50:00,
2013-08-02 06:00:00,51.4,48.9,29.93,NW,325,0.0,0.0,91,0.00,,,0.00,Wunderground v.1.15,2013-08-02 13:00:00,
2013-08-02 06:15:00,51.4,49.2,29.93,NW,325,0.0,0.0,92,0.00,,,0.00,Wunderground v.1.15,2013-08-02 13:15:00,
2013-08-02 06:25:00,51.5,49.3,29.93,NW,325,0.0,0.0,92,0.00,,,0.00,Wunderground v.1.15,2013-08-02 13:25:00,
2013-08-02 06:35:00,51.2,49.0,29.94,NW,325,0.0,0.0,92,0.00,,,0.00,Wunderground v.1.15,2013-08-02 13:35:00,
2013-08-02 06:44:00,52.3,50.6,29.94,NW,325,0.0,0.0,94,0.00,,,0.00,Wunderground v.1.15,2013-08-02 13:44:00,
2013-08-02 06:50:00,52.4,50.4,29.94,NW,325,0.0,0.0,93,0.00,,,0.00,Wunderground v.1.15,2013-08-02 13:50:00,
2013-08-02 06:55:00,52.4,50.4,29.94,NW,325,0.0,0.0,93,0.00,,,0.00,Wunderground v.1.15,2013-08-02 13:55:00,
2013-08-02 07:00:00,52.6,50.6,29.94,NW,325,0.0,0.0,93,0.00,,,0.00,Wunderground v.1.15,2013-08-02 14:00:00,
2013-08-02 07:05:00,52.6,50.6,29.94,NW,325,0.0,0.0,93,0.00,,,0.00,Wunderground v.1.15,2013-08-02 14:05:00,
2013-08-02 07:10:00,53.1,51.1,29.94,NW,325,0.0,0.0,93,0.00,,,0.00,Wunderground v.1.15,2013-08-02 14:10:00,
2013-08-02 07:20:00,54.3,52.3,29.94,East,92,0.0,4.0,93,0.00,,,0.00,Wunderground v.1.15,2013-08-02 14:20:00,
2013-08-02 07:25:00,54.7,52.4,29.95,East,92,0.0,4.0,92,0.00,,,0.00,Wunderground v.1.15,2013-08-02 14:25:00,
2013-08-02 07:40:00,56.3,53.4,29.95,East,92,0.0,0.0,90,0.00,,,0.00,Wunderground v.1.15,2013-08-02 14:40:00,
2013-08-02 07:50:00,57.5,54.3,29.95,NNW,339,0.0,0.0,89,0.00,,,0.00,Wunderground v.1.15,2013-08-02 14:50:00,
2013-08-02 08:05:00,58.1,53.9,29.95,SSW,195,1.0,1.0,86,0.00,,,0.00,Wunderground v.1.15,2013-08-02 15:05:00,
2013-08-02 08:15:00,58.7,54.2,29.96,NE,55,1.0,1.0,85,0.00,,,0.00,Wunderground v.1.15,2013-08-02 15:15:00,
2013-08-02 08:30:00,60.5,54.3,29.96,NE,51,1.0,1.0,80,0.00,,,0.00,Wunderground v.1.15,2013-08-02 15:30:00,
2013-08-02 08:40:00,61.5,54.9,29.96,ESE,113,0.0,4.0,79,0.00,,,0.00,Wunderground v.1.15,2013-08-02 15:40:00,
2013-08-02 08:54:00,62.0,54.3,29.96,SSW,202,2.0,3.0,76,0.00,,,0.00,Wunderground v.1.15,2013-08-02 15:54:00,
2013-08-02 09:00:00,61.7,53.7,29.96,SSW,204,3.0,3.0,75,0.00,,,0.00,Wunderground v.1.15,2013-08-02 16:00:00,
2013-08-02 09:10:00,62.6,54.6,29.96,South,190,3.0,3.0,75,0.00,,,0.00,Wunderground v.1.15,2013-08-02 16:10:00,
2013-08-02 09:20:00,64.3,54.3,29.95,SW,214,2.0,2.0,70,0.00,,,0.00,Wunderground v.1.15,2013-08-02 16:20:00,
2013-08-02 09:25:00,65.0,53.8,29.95,SSW,213,2.0,2.0,67,0.00,,,0.00,Wunderground v.1.15,2013-08-02 16:25:00,
2013-08-02 09:45:00,66.1,53.6,29.95,SW,216,3.0,3.0,64,0.00,,,0.00,Wunderground v.1.15,2013-08-02 16:45:00,
2013-08-02 09:55:00,66.8,53.8,29.95,SSW,200,2.0,6.0,63,0.00,,,0.00,Wunderground v.1.15,2013-08-02 16:55:00,
2013-08-02 10:10:00,67.4,53.5,29.95,SW,224,7.0,8.0,61,0.00,,,0.00,Wunderground v.1.15,2013-08-02 17:10:00,
2013-08-02 10:20:00,68.0,53.6,29.95,SW,230,6.0,6.0,60,0.00,,,0.00,Wunderground v.1.15,2013-08-02 17:20:00,
2013-08-02 10:30:00,68.9,52.6,29.95,SSW,197,4.0,7.0,56,0.00,,,0.00,Wunderground v.1.15,2013-08-02 17:30:00,
2013-08-02 10:40:00,69.3,51.9,29.95,SW,235,6.0,7.0,54,0.00,,,0.00,Wunderground v.1.15,2013-08-02 17:40:00,
2013-08-02 10:50:00,70.1,51.7,29.95,SSW,205,5.0,7.0,52,0.00,,,0.00,Wunderground v.1.15,2013-08-02 17:50:00,
2013-08-02 11:00:00,70.7,51.7,29.95,SSW,203,5.0,8.0,51,0.00,,,0.00,Wunderground v.1.15,2013-08-02 18:00:00,
2013-08-02 11:10:00,71.2,52.1,29.94,SSW,210,4.0,4.0,51,0.00,,,0.00,Wunderground v.1.15,2013-08-02 18:10:00,
2013-08-02 11:20:00,72.8,53.1,29.94,SSW,203,1.0,4.0,50,0.00,,,0.00,Wunderground v.1.15,2013-08-02 18:20:00,
2013-08-02 11:30:00,73.5,51.4,29.94,NNW,343,4.0,4.0,46,0.00,,,0.00,Wunderground v.1.15,2013-08-02 18:30:00,
2013-08-02 11:40:00,73.9,51.8,29.93,SW,222,2.0,2.0,46,0.00,,,0.00,Wunderground v.1.15,2013-08-02 18:40:00,
2013-08-02 11:50:00,75.4,53.2,29.93,WSW,251,1.0,1.0,46,0.00,,,0.00,Wunderground v.1.15,2013-08-02 18:50:00,
2013-08-02 12:05:00,76.4,51.6,29.93,SW,225,2.0,2.0,42,0.00,,,0.00,Wunderground v.1.15,2013-08-02 19:05:00,
2013-08-02 12:10:00,76.3,51.5,29.93,SSW,208,3.0,4.0,42,0.00,,,0.00,Wunderground v.1.15,2013-08-02 19:10:00,
2013-08-02 12:15:00,76.3,51.5,29.93,South,188,4.0,4.0,42,0.00,,,0.00,Wunderground v.1.15,2013-08-02 19:15:00,
2013-08-02 12:25:00,76.7,53.1,29.93,SSW,207,2.0,5.0,44,0.00,,,0.00,Wunderground v.1.15,2013-08-02 19:25:00,
2013-08-02 12:30:00,77.5,51.9,29.92,SSW,205,2.0,5.0,41,0.00,,,0.00,Wunderground v.1.15,2013-08-02 19:30:00,
2013-08-02 12:40:00,77.6,52.7,29.92,WNW,296,3.0,3.0,42,0.00,,,0.00,Wunderground v.1.15,2013-08-02 19:40:00,
2013-08-02 12:50:00,78.8,52.4,29.92,SW,215,2.0,7.0,40,0.00,,,0.00,Wunderground v.1.15,2013-08-02 19:50:00,
2013-08-02 12:55:00,78.3,51.3,29.92,SSW,202,3.0,7.0,39,0.00,,,0.00,Wunderground v.1.15,2013-08-02 19:55:00,
2013-08-02 13:04:00,78.2,51.2,29.91,South,191,4.0,5.0,39,0.00,,,0.00,Wunderground v.1.15,2013-08-02 20:04:00,
2013-08-02 13:10:00,79.0,53.9,29.91,NW,306,2.0,2.0,42,0.00,,,0.00,Wunderground v.1.15,2013-08-02 20:10:00,
2013-08-02 13:20:00,81.0,51.5,29.91,SSW,212,2.0,5.0,36,0.00,,,0.00,Wunderground v.1.15,2013-08-02 20:20:00,
2013-08-02 13:30:00,80.4,50.2,29.91,SSW,204,3.0,3.0,35,0.00,,,0.00,Wunderground v.1.15,2013-08-02 20:30:00,
2013-08-02 13:40:00,81.6,50.5,29.90,South,179,3.0,10.0,34,0.00,,,0.00,Wunderground v.1.15,2013-08-02 20:40:00,
2013-08-02 13:50:00,81.1,50.9,29.90,SSW,192,5.0,7.0,35,0.00,,,0.00,Wunderground v.1.15,2013-08-02 20:50:00,
2013-08-02 14:00:00,80.9,50.7,29.90,SSW,204,6.0,8.0,35,0.00,,,0.00,Wunderground v.1.15,2013-08-02 21:00:00,
2013-08-02 14:10:00,80.9,50.7,29.90,SW,214,6.0,10.0,35,0.00,,,0.00,Wunderground v.1.15,2013-08-02 21:10:00,
2013-08-02 14:20:00,81.3,50.2,29.89,SSW,204,6.0,7.0,34,0.00,,,0.00,Wunderground v.1.15,2013-08-02 21:20:00,
2013-08-02 14:25:00,81.8,49.1,29.89,SSW,196,6.0,7.0,32,0.00,,,0.00,Wunderground v.1.15,2013-08-02 21:25:00,
2013-08-02 14:35:00,80.7,48.9,29.89,SSW,209,8.0,8.0,33,0.00,,,0.00,Wunderground v.1.15,2013-08-02 21:35:00,
2013-08-02 14:45:00,81.7,49.8,29.89,SSW,193,7.0,12.0,33,0.00,,,0.00,Wunderground v.1.15,2013-08-02 21:45:00,
2013-08-02 14:55:00,81.1,47.6,29.89,SSW,194,8.0,11.0,31,0.00,,,0.00,Wunderground v.1.15,2013-08-02 21:55:00,
2013-08-02 15:00:00,80.9,49.1,29.89,SSW,211,9.0,11.0,33,0.00,,,0.00,Wunderground v.1.15,2013-08-02 22:00:00,
2013-08-02 15:10:00,81.2,47.7,29.89,SW,217,8.0,12.0,31,0.00,,,0.00,Wunderground v.1.15,2013-08-02 22:10:00,
2013-08-02 15:20:00,81.1,43.9,29.88,SW,223,10.0,10.0,27,0.00,,,0.00,Wunderground v.1.15,2013-08-02 22:20:00,
2013-08-02 15:25:00,81.9,46.5,29.88,SW,214,8.0,10.0,29,0.00,,,0.00,Wunderground v.1.15,2013-08-02 22:25:00,
2013-08-02 15:30:00,81.7,44.5,29.88,SSW,207,8.0,8.0,27,0.00,,,0.00,Wunderground v.1.15,2013-08-02 22:30:00,
2013-08-02 15:40:00,81.8,43.6,29.87,SW,235,8.0,8.0,26,0.00,,,0.00,Wunderground v.1.15,2013-08-02 22:40:00,
2013-08-02 15:45:00,82.6,43.2,29.87,SW,221,8.0,8.0,25,0.00,,,0.00,Wunderground v.1.15,2013-08-02 22:45:00,
2013-08-02 15:55:00,81.9,41.6,29.87,SW,225,10.0,10.0,24,0.00,,,0.00,Wunderground v.1.15,2013-08-02 22:55:00,
2013-08-02 16:00:00,81.7,41.4,29.87,SSW,192,10.0,10.0,24,0.00,,,0.00,Wunderground v.1.15,2013-08-02 23:00:00,
2013-08-02 16:09:00,81.4,40.0,29.87,South,182,11.0,13.0,23,0.00,,,0.00,Wunderground v.1.15,2013-08-02 23:09:00,
2013-08-02 16:15:00,81.3,42.1,29.86,SW,220,12.0,13.0,25,0.00,,,0.00,Wunderground v.1.15,2013-08-02 23:15:00,
2013-08-02 16:25:00,81.1,45.8,29.86,SSW,213,12.0,13.0,29,0.00,,,0.00,Wunderground v.1.15,2013-08-02 23:25:00,
2013-08-02 16:35:00,81.0,43.9,29.87,SSW,209,11.0,12.0,27,0.00,,,0.00,Wunderground v.1.15,2013-08-02 23:35:00,
2013-08-02 16:40:00,81.3,42.1,29.87,SW,223,11.0,11.0,25,0.00,,,0.00,Wunderground v.1.15,2013-08-02 23:40:00,
2013-08-02 16:50:00,81.1,41.9,29.87,SW,215,10.0,14.0,25,0.00,,,0.00,Wunderground v.1.15,2013-08-02 23:50:00,
2013-08-02 16:55:00,81.3,43.1,29.87,SSW,200,10.0,14.0,26,0.00,,,0.00,Wunderground v.1.15,2013-08-02 23:55:00,
2013-08-02 17:09:00,80.6,47.2,29.87,SSW,211,8.0,8.0,31,0.00,,,0.00,Wunderground v.1.15,2013-08-03 00:09:00,
2013-08-02 17:15:00,79.7,48.0,29.87,SSW,193,10.0,12.0,33,0.00,,,0.00,Wunderground v.1.15,2013-08-03 00:15:00,
2013-08-02 17:20:00,79.3,49.3,29.87,SW,236,11.0,11.0,35,0.00,,,0.00,Wunderground v.1.15,2013-08-03 00:20:00,
2013-08-02 17:30:00,78.6,49.4,29.87,SW,215,11.0,11.0,36,0.00,,,0.00,Wunderground v.1.15,2013-08-03 00:30:00,
2013-08-02 17:40:00,78.6,49.4,29.87,SW,219,7.0,11.0,36,0.00,,,0.00,Wunderground v.1.15,2013-08-03 00:40:00,
2013-08-02 17:50:00,77.1,50.2,29.87,SSW,209,11.0,12.0,39,0.00,,,0.00,Wunderground v.1.15,2013-08-03 00:50:00,
2013-08-02 18:00:00,76.6,50.5,29.86,SSW,194,12.0,12.0,40,0.00,,,0.00,Wunderground v.1.15,2013-08-03 01:00:00,
2013-08-02 18:10:00,76.9,50.7,29.86,SW,225,9.0,9.0,40,0.00,,,0.00,Wunderground v.1.15,2013-08-03 01:10:00,
2013-08-02 18:15:00,76.4,50.3,29.86,SW,221,9.0,9.0,40,0.00,,,0.00,Wunderground v.1.15,2013-08-03 01:15:00,
2013-08-02 18:20:00,75.9,49.8,29.86,SSW,205,10.0,15.0,40,0.00,,,0.00,Wunderground v.1.15,2013-08-03 01:20:00,
2013-08-02 18:25:00,75.6,50.2,29.86,SW,220,11.0,16.0,41,0.00,,,0.00,Wunderground v.1.15,2013-08-03 01:25:00,
2013-08-02 18:35:00,75.2,50.5,29.86,SW,219,12.0,12.0,42,0.00,,,0.00,Wunderground v.1.15,2013-08-03 01:35:00,
2013-08-02 18:45:00,74.5,50.5,29.86,SSW,202,11.0,11.0,43,0.00,,,0.00,Wunderground v.1.15,2013-08-03 01:45:00,
2013-08-02 18:55:00,74.3,50.4,29.87,SSW,203,10.0,12.0,43,0.00,,,0.00,Wunderground v.1.15,2013-08-03 01:55:00,
2013-08-02 19:00:00,74.1,50.8,29.86,SW,221,10.0,10.0,44,0.00,,,0.00,Wunderground v.1.15,2013-08-03 02:00:00,
2013-08-02 19:09:00,72.7,51.9,29.87,SSW,208,9.0,10.0,48,0.00,,,0.00,Wunderground v.1.15,2013-08-03 02:09:00,
2013-08-02 19:19:00,71.9,50.6,29.87,SW,227,9.0,9.0,47,0.00,,,0.00,Wunderground v.1.15,2013-08-03 02:19:00,
2013-08-02 19:25:00,71.5,50.8,29.87,SSW,209,8.0,9.0,48,0.00,,,0.00,Wunderground v.1.15,2013-08-03 02:25:00,
2013-08-02 19:30:00,71.5,49.6,29.87,SSW,198,7.0,7.0,46,0.00,,,0.00,Wunderground v.1.15,2013-08-03 02:30:00,
2013-08-02 19:40:00,71.1,49.3,29.87,SSW,207,6.0,7.0,46,0.00,,,0.00,Wunderground v.1.15,2013-08-03 02:40:00,
2013-08-02 19:45:00,70.8,49.0,29.87,SW,221,6.0,8.0,46,0.00,,,0.00,Wunderground v.1.15,2013-08-03 02:45:00,
2013-08-02 19:50:00,70.3,49.1,29.87,SSW,202,5.0,5.0,47,0.00,,,0.00,Wunderground v.1.15,2013-08-03 02:50:00,
2013-08-02 19:55:00,69.7,49.1,29.87,SW,225,3.0,5.0,48,0.00,,,0.00,Wunderground v.1.15,2013-08-03 02:55:00,
2013-08-02 20:05:00,68.1,50.3,29.88,SSW,192,2.0,5.0,53,0.00,,,0.00,Wunderground v.1.15,2013-08-03 03:05:00,
2013-08-02 20:10:00,67.6,49.3,29.88,SE,145,1.0,1.0,52,0.00,,,0.00,Wunderground v.1.15,2013-08-03 03:10:00,
2013-08-02 20:20:00,67.1,49.4,29.88,NW,322,1.0,1.0,53,0.00,,,0.00,Wunderground v.1.15,2013-08-03 03:20:00,
2013-08-02 20:30:00,66.7,50.0,29.88,NNW,330,0.0,0.0,55,0.00,,,0.00,Wunderground v.1.15,2013-08-03 03:30:00,
2013-08-02 20:35:00,66.5,49.8,29.89,North,360,0.0,0.0,55,0.00,,,0.00,Wunderground v.1.15,2013-08-03 03:35:00,
2013-08-02 20:40:00,66.0,49.8,29.89,North,360,0.0,0.0,56,0.00,,,0.00,Wunderground v.1.15,2013-08-03 03:40:00,
2013-08-02 20:50:00,65.1,50.0,29.89,North,360,0.0,0.0,58,0.00,,,0.00,Wunderground v.1.15,2013-08-03 03:50:00,
2013-08-02 21:00:00,64.3,50.6,29.89,North,355,1.0,1.0,61,0.00,,,0.00,Wunderground v.1.15,2013-08-03 04:00:00,
2013-08-02 21:05:00,64.0,50.7,29.89,North,355,1.0,1.0,62,0.00,,,0.00,Wunderground v.1.15,2013-08-03 04:05:00,
2013-08-02 21:10:00,63.6,50.8,29.89,North,355,0.0,0.0,63,0.00,,,0.00,Wunderground v.1.15,2013-08-03 04:10:00,
2013-08-02 21:15:00,63.2,50.8,29.90,North,355,0.0,0.0,64,0.00,,,0.00,Wunderground v.1.15,2013-08-03 04:15:00,
2013-08-02 21:25:00,62.0,50.1,29.90,North,355,0.0,0.0,65,0.00,,,0.00,Wunderground v.1.15,2013-08-03 04:25:00,
2013-08-02 21:35:00,61.4,50.7,29.90,North,355,0.0,0.0,68,0.00,,,0.00,Wunderground v.1.15,2013-08-03 04:35:00,
2013-08-02 21:45:00,60.9,51.0,29.91,North,355,0.0,0.0,70,0.00,,,0.00,Wunderground v.1.15,2013-08-03 04:45:00,
2013-08-02 21:50:00,60.7,50.9,29.91,North,355,0.0,0.0,70,0.00,,,0.00,Wunderground v.1.15,2013-08-03 04:50:00,
2013-08-02 22:05:00,60.3,50.5,29.91,NE,52,1.0,1.0,70,0.00,,,0.00,Wunderground v.1.15,2013-08-03 05:05:00,
2013-08-02 22:10:00,60.1,50.7,29.91,NE,49,2.0,2.0,71,0.00,,,0.00,Wunderground v.1.15,2013-08-03 05:10:00,
2013-08-02 22:30:00,59.4,52.2,29.91,NNE,33,0.0,0.0,77,0.00,,,0.00,Wunderground v.1.15,2013-08-03 05:30:00,
2013-08-02 22:44:00,58.5,52.0,29.91,NNE,33,0.0,0.0,79,0.00,,,0.00,Wunderground v.1.15,2013-08-03 05:44:00,
2013-08-02 22:50:00,58.4,52.3,29.91,NNE,33,0.0,0.0,80,0.00,,,0.00,Wunderground v.1.15,2013-08-03 05:50:00,
2013-08-02 22:55:00,58.3,52.2,29.91,NNE,33,0.0,0.0,80,0.00,,,0.00,Wunderground v.1.15,2013-08-03 05:55:00,
2013-08-02 23:00:00,58.2,52.1,29.91,NNE,33,0.0,0.0,80,0.00,,,0.00,Wunderground v.1.15,2013-08-03 06:00:00,
2013-08-02 23:10:00,58.1,51.3,29.91,NNE,33,0.0,0.0,78,0.00,,,0.00,Wunderground v.1.15,2013-08-03 06:10:00,
2013-08-02 23:20:00,58.0,51.2,29.91,SSE,166,1.0,1.0,78,0.00,,,0.00,Wunderground v.1.15,2013-08-03 06:20:00,
2013-08-02 23:30:00,58.8,50.9,29.91,South,178,1.0,1.0,75,0.00,,,0.00,Wunderground v.1.15,2013-08-03 06:30:00,
2013-08-02 23:35:00,58.8,50.9,29.91,South,178,0.0,1.0,75,0.00,,,0.00,Wunderground v.1.15,2013-08-03 06:35:00,
2013-08-02 23:45:00,58.9,51.3,29.91,SSW,200,1.0,4.0,76,0.00,,,0.00,Wunderground v.1.15,2013-08-03 06:45:00,
2013-08-02 23:55:00,57.8,52.0,29.91,SSW,200,0.0,0.0,81,0.00,,,0.00,Wunderground v.1.15,2013-08-03 06:55:00,